Terminal Aerodrome Forecast
Issued by NWS Sterling, VA

Current Version | Previous Version | Text Only | Print | Product List | Glossary Off
Versions: 1 2 3 4 5 6 7 8 9 10 11 12 13 14 15 16 17 18 19 20 21 22

388
FTUS41 KLWX 240523
TAFIAD
TAF
KIAD 240523Z 2406/2512 VRB03KT P6SM FEW100
     FM241100 01007KT P6SM OVC035
     FM250200 02004KT P6SM SCT040=

USA.gov is the U.S. government's official web portal to all federal, state and local government web resources and services.